This demonstration page uses our WeatherBlox Daily Observations layout. Learn more.

Left ArrowRight Arrow

44.89941, -97.11507

Hourly Observations for January 11, 2021

Temp ( °F °C ) Dew Point ( °F °C ) Humidity (%) Winds ( mph kmh ) Pressure ( in mb ) Visibility ( mi km ) Precip ( " mm )
12:53 am 00:53 Clear 26 -3.3 24 -4.4 92 92 S 8 13 30.16 1021 10 16 0.00 0.00
1:53 am 01:53 Clear 25 -3.9 23 -5 92 92 S 13 20 30.13 1020 10 16 0.00 0.00
2:53 am 02:53 Clear 24 -4.4 22 -5.6 91 91 S 12 19 30.11 1020 10 16 0.00 0.00
3:53 am 03:53 Clear 24 -4.4 22 -5.6 91 91 S 9 15 30.10 1019 10 16 0.00 0.00
4:53 am 04:53 Clear 22 -5.6 20 -6.7 92 92 S 7 11 30.08 1019 10 16 0.00 0.00
5:53 am 05:53 Clear 22 -5.6 20 -6.7 92 92 S 8 13 30.05 1018 10 16 0.00 0.00
6:53 am 06:53 Clear 22 -5.6 20 -6.7 92 92 SW 5 7 30.06 1018 10 16 0.00 0.00
7:53 am 07:53 Clear 20 -6.7 18 -7.8 92 92 SW 6 9 30.04 1017 10 16 0.00 0.00
8:53 am 08:53 Sunny 23 -5 21 -6.1 92 92 SW 14 22 30.03 1017 10 16 0.00 0.00
9:53 am 09:53 Sunny 26 -3.3 23 -5 88 88 WSW 8 13 30.04 1017 10 16 0.00 0.00
10:53 am 10:53 Sunny 29 -1.7 24 -4.4 82 82 W 12 19 30.02 1017 10 16 0.00 0.00
11:53 am 11:53 Sunny 30 -1.1 24 -4.4 79 79 W 10 17 30.01 1016 10 16 0.00 0.00
12:53 pm 12:53 Sunny 31 -0.6 24 -4.4 76 76 W 9 15 30.00 1016 10 16 0.00 0.00
1:53 pm 13:53 Sunny 32 0 25 -3.9 75 75 WNW 9 15 29.99 1016 10 16 0.00 0.00
2:53 pm 14:53 Sunny 34 1.1 26 -3.3 73 73 WNW 10 17 30.00 1016 10 16 0.00 0.00
3:53 pm 15:53 Sunny 34 1.1 27 -2.8 76 76 W 10 17 30.01 1016 10 16 0.00 0.00
4:53 pm 16:53 Sunny 32 0 26 -3.3 79 79 WNW 10 17 30.04 1017 10 16 0.00 0.00
5:53 pm 17:53 Clear 30 -1.1 25 -3.9 82 82 W 8 13 30.05 1018 10 16 0.00 0.00
6:53 pm 18:53 Clear 29 -1.7 25 -3.9 85 85 WNW 7 11 30.05 1018 10 16 0.00 0.00
7:53 pm 19:53 Clear 27 -2.8 24 -4.4 89 89 W 6 9 30.06 1018 10 16 0.00 0.00
8:53 pm 20:53 Clear 22 -5.6 21 -6.1 96 96 WSW 8 13 30.05 1018 10 16 0.00 0.00
9:53 pm 21:53 Clear 21 -6.1 20 -6.7 96 96 W 6 9 30.05 1018 10 16 0.00 0.00
10:53 pm 22:53 Clear 22 -5.6 21 -6.1 96 96 W 3 6 30.06 1018 10 16 0.00 0.00
11:53 pm 23:53 Clear 20 -6.7 18 -7.8 92 92 SSW 3 6 30.04 1017 10 16 0.00 0.00

Powered by AerisWeather